SCP
0 0 0 -0 0 0 0 0 0 0 0 0 0 0 0 0 1 1 0 0 0 0 0 0 0 0 0 0 0 0 0 0 0 0 -0 0 -0 -0 -0 0 -0 -0 -0
0 0 0 0 0 0 0 0 0 0 0 0 0 0 0 0 0 0 0 1 1 0 0 0 0 0 0 0 0 0 0 0 0 0 0 0 -0 -0 0 0 -0 -0 -0
0 0 0 0 0 0 0 0 0 0 0 0 0 0 0 0 0 0 0 1 1 0 0 0 0 0 0 0 0 0 0 0 0 0 0 0 0 0 0 0 -0 0 -0
0 0 0 0 0 0 0 0 0 0 0 0 0 0 0 0 0 0 0 0 0 0 0 0 0 0 0 0 0 0 0 0 0 0 0 0 0 0 0 0 0 0 -0
0 0 0 0 0 0 0 0 0 0 0 0 0 0 0 0 0 0 0 0 0 0 0 0 0 0 0 0 0 0 0 0 0 0 0 0 0 0 0 0 0 0 0
0 0 0 0 0 0 0 0 0 0 0 0 0 0 0 0 0 0 0 0 0 0 0 0 0 0 0 0 0 0 0 0 0 0 0 0 0 0 0 0 0 0 0
0 0 0 0 0 0 0 0 0 0 0 0 0 0 0 0 0 0 0 0 0 0 0 0 0 0 0 0 0 0 0 0 0 0 0 0 0 0 0 0 0 0 0
0 0 0 0 0 0 0 0 0 0 0 0 0 0 0 0 0 0 0 0 0 0 0 0 0 0 0 0 0 0 0 0 0 0 0 0 0 0 0 0 0 0 0
0 0 0 0 0 0 0 0 0 0 0 0 0 0 0 0 0 0 0 0 0 0 0 0 0 0 0 0 0 0 0 0 0 0 0 0 0 0 0 0 0 0 0
0 -0 -0 -0 -0 0 0 0 0 0 0 0 0 0 0 0 0 0 0 0 0 0 0 0 0 0 0 0 0 0 0 0 0 0 0 0 0 0 0 0 0 0 0
0 -0 -0 -0 -0 -0 -0 0 0 0 0 0 0 0 0 0 0 0 0 0 0 0 0 0 0 0 0 0 0 0 0 0 0 0 0 0 0 0 0 0 0 0 0
0 -0 -0 0 0 0 -0 -0 0 0 0 0 0 0 0 0 0 0 0 0 0 0 0 0 0 0 0 0 0 0 0 0 0 0 0 0 0 0 0 0 0 0 0
0 0 0 0 0 0 -0 -0 -0 -0 0 0 0 0 0 0 0 0 0 0 0 0 0 0 0 0 0 0 0 0 0 0 0 0 0 0 0 0 0 0 0 0 0
0 0 0 0 -0 -0 -0 -0 -0 -0 -0 0 0 0 0 0 0 0 0 0 0 0 0 0 0 0 0 0 0 0 0 0 0 0 0 0 0 0 0 0 0 0 0
0 0 0 -0 -0 -0 -0 -0 -0 -0 -0 0 0 0 0 0 0 0 0 0 0 0 0 0 0 0 0 0 0 0 0 0 0 0 0 0 0 0 0 0 0 0 0
0 0 -0 -0 -0 -0 -0 -0 -0 -0 -0 0 0 0 0 0 0 0 0 0 0 0 1 1 1 0 0 0 0 0 0 0 0 0 0 0 0 0 0 0 0 0 0
0 -0 -0 -0 -0 -0 -0 -0 -0 -0 0 0 0 0 0 0 0 0 0 0 0 0 0 1 1 1 0 0 0 0 0 0 0 0 0 0 0 0 0 0 0 0 0
0 -0 -0 -0 -0 -0 -0 -0 -0 0 0 0 0 0 0 0 0 0 0 0 0 0 0 0 1 0 0 0 0 0 0 0 0 0 0 0 0 0 0 0 0 0 0
-0 -0 -0 -0 -0 0 0 0 0 0 0 0 0 0 0 0 0 0 0 0 0 0 0 0 0 1 0 0 0 0 0 0 0 0 0 0 0 0 0 0 0 0 0
-0 0 0 0 0 0 0 0 0 0 0 0 0 0 0 0 0 0 0 0 0 0 0 0 0 0 0 0 0 0 0 0 0 0 0 0 0 0 0 0 0 0 0
-0 0 0 0 0 0 0 0 0 0 0 0 0 0 0 0 0 0 0 0 0 0 0 0 0 0 0 0 0 0 0 0 0 0 0 0 0 0 0 0 0 0 0
0 0 0 0 0 0 0 0 0 0 0 0 0 0 0 0 0 0 0 0 0 0 0 0 0 0 0 0 0 0 0 0 0 0 0 0 0 0 0 0 0 0 0
0 0 0 0 0 0 0 0 0 0 0 0 0 0 0 0 0 0 0 0 0 0 0 0 0 0 0 0 0 0 0 0 0 0 0 0 0 0 0 0 0 0 0
0 0 0 0 0 0 0 0 0 0 0 0 0 0 0 0 0 0 0 0 0 0 0 0 0 0 1 0 0 0 0 0 0 0 0 0 0 0 0 0 0 0 0
0 0 0 0 0 0 0 0 0 0 0 0 0 0 0 0 0 0 0 0 0 0 0 0 0 0 0 0 0 0 0 0 0 0 0 0 0 0 0 0 0 0 0
0 0 0 0 0 0 0 0 0 0 0 0 0 0 0 0 0 0 0 0 0 0 0 0 0 0 0 0 0 0 0 0 0 0 0 0 0 0 0 0 0 0 0
Wind_Speed_500mb
15 14 11 12 13 15 16 18 24 30 29 25 25 25 24 24 25 27 28 26 26 27 27 27 26 25 26 22 23 21 19 17 15 13 12 8 2 29 39 42 37 33 29
25 16 14 9 17 21 21 19 23 24 26 27 26 25 25 25 27 30 31 33 32 30 31 31 30 29 26 27 30 27 26 24 18 18 17 14 13 37 36 36 33 28 29
19 13 12 7 13 18 24 23 24 28 28 28 30 28 26 25 25 28 31 34 34 33 33 33 32 32 32 31 29 30 27 23 20 22 22 22 27 40 34 34 30 27 28
16 14 8 14 11 18 21 25 26 27 28 29 31 30 28 26 25 26 30 32 35 34 33 31 30 31 33 33 33 32 27 25 21 19 19 25 38 42 37 30 31 30 29
14 14 12 9 7 17 24 21 28 29 28 28 32 33 31 29 27 27 30 34 34 35 33 30 27 25 24 26 32 35 31 24 22 21 21 31 47 41 37 29 31 31 31
20 21 19 18 18 16 18 30 30 26 31 31 33 35 36 32 31 30 33 36 38 37 34 32 27 22 20 20 23 29 27 26 24 20 26 41 46 39 36 32 32 32 34
24 28 31 32 27 29 29 21 32 32 36 35 37 36 39 39 38 36 38 40 41 41 39 35 29 27 26 23 22 28 25 26 28 21 25 47 45 37 36 29 32 34 33
29 32 33 35 38 34 33 35 32 29 44 41 42 41 42 43 45 44 43 44 44 45 44 40 36 35 34 31 31 30 28 23 24 29 28 50 45 33 35 34 32 36 33
31 36 41 42 42 44 41 38 38 39 35 43 48 49 46 49 48 50 50 49 49 48 50 47 43 41 39 36 37 35 34 28 25 32 35 49 45 39 36 34 34 35 35
37 40 45 50 52 50 50 48 46 44 41 41 42 54 56 56 54 53 55 54 54 53 53 54 48 46 46 40 39 40 40 36 33 33 42 43 51 47 42 40 36 34 37
41 45 49 51 52 52 50 50 48 48 48 48 43 46 56 56 60 58 57 57 58 55 56 57 55 49 49 42 41 40 41 42 40 42 43 47 46 46 47 50 45 40 40
44 46 46 43 43 45 47 50 52 53 52 52 51 49 47 51 61 65 64 61 61 60 57 59 59 53 51 49 46 46 48 44 45 49 54 53 53 50 45 48 52 52 46
41 41 38 44 50 56 61 62 62 62 62 59 54 54 55 51 52 56 68 68 66 64 63 61 62 61 60 59 54 56 54 50 49 52 53 58 57 49 45 43 45 48 48
37 37 48 63 74 77 76 78 80 73 69 67 63 59 58 60 56 53 57 56 73 73 71 68 68 67 67 67 58 60 57 54 51 51 58 60 57 50 43 52 51 53 55
37 48 67 75 81 85 88 87 81 78 73 70 69 66 62 63 65 58 57 56 50 81 78 77 74 73 73 70 64 65 62 58 55 54 57 67 63 57 50 54 61 61 53
42 59 73 83 88 88 89 90 87 79 75 72 70 68 68 66 67 67 65 62 61 48 88 82 81 80 79 76 72 70 70 64 57 57 58 61 73 67 58 54 54 51 55
48 69 80 89 88 90 89 88 84 82 74 71 72 71 70 71 70 71 71 73 65 65 50 83 89 86 85 83 79 76 77 71 64 61 55 62 70 73 65 59 52 54 48
62 79 93 93 93 92 88 86 84 78 77 71 69 73 73 72 71 74 76 74 71 70 61 61 73 92 90 91 87 87 85 80 70 65 58 59 69 77 73 64 56 53 49
76 89 90 87 87 86 85 83 78 75 71 73 65 68 74 75 72 73 78 78 73 70 69 85 39 81 81 102 100 97 92 91 79 70 61 56 61 70 73 66 61 57 54
83 83 84 83 82 82 80 77 74 70 71 70 69 64 67 75 76 72 76 78 73 69 66 61 64 64 88 86 89 93 101 97 87 74 64 57 57 66 72 69 62 60 57
77 79 78 78 70 69 71 71 70 70 67 67 65 66 63 69 76 74 73 75 75 74 72 56 58 64 98 62 65 54 65 92 98 74 67 61 63 62 69 68 66 65 61
75 74 75 74 69 64 66 65 63 63 63 70 65 65 66 63 69 76 71 72 74 72 70 64 54 58 71 83 73 63 41 52 72 75 71 67 68 67 67 67 68 70 70
70 72 76 73 69 63 59 61 62 61 59 60 64 62 65 65 57 65 68 69 69 69 68 67 66 62 72 73 79 64 19 28 64 73 86 85 78 74 74 74 74 75 78
70 74 76 73 69 62 54 56 54 56 62 62 64 66 67 64 62 63 62 62 65 68 69 69 72 68 69 82 80 88 71 46 37 42 87 95 86 79 78 79 81 82 82
74 78 76 72 68 62 54 49 57 57 59 61 64 70 66 70 71 63 63 59 60 65 65 64 74 61 70 70 94 87 87 71 67 46 49 77 88 77 75 83 82 82 83
72 74 73 73 71 64 55 52 48 54 55 59 64 70 64 69 65 55 55 56 55 64 60 59 69 69 66 74 77 83 87 93 88 71 57 63 69 76 81 82 71 71 78
Wind_Direction_500mb
13 353 292 263 241 218 220 242 214 209 211 216 220 216 216 223 229 230 225 218 214 214 211 204 204 202 208 216 224 226 230 239 253 247 245 253 263 148 138 138 136 134 138
5 353 342 271 263 228 216 237 250 231 222 216 222 231 237 235 237 235 226 222 220 215 217 216 219 231 234 223 231 236 240 248 249 241 240 243 187 158 149 147 148 144 146
7 6 341 312 250 259 232 218 241 249 243 236 231 233 240 246 241 232 226 219 217 217 220 220 226 235 241 238 229 237 237 233 243 249 238 219 186 171 161 155 156 157 156
359 3 340 352 265 267 257 235 228 240 253 251 247 242 241 244 245 232 220 215 211 213 220 225 232 241 244 232 221 232 230 231 238 217 228 192 182 177 169 165 164 166 165
332 344 357 310 320 264 274 273 244 238 242 248 254 251 247 243 246 238 221 216 217 215 218 223 232 243 240 222 215 222 227 224 194 209 229 186 175 178 176 171 175 172 173
318 324 333 336 316 313 261 261 264 253 249 243 245 251 250 248 244 240 232 224 222 220 220 220 231 226 220 211 211 212 206 191 204 208 196 179 176 177 187 184 178 174 179
328 329 329 329 323 315 304 300 266 263 255 253 247 243 248 246 244 241 238 232 228 225 224 226 229 223 209 202 190 179 179 195 212 229 200 182 180 176 189 189 186 179 181
326 324 320 313 309 306 305 305 290 275 261 254 254 249 244 241 245 243 242 238 236 232 231 229 227 220 215 206 199 208 213 217 230 232 209 187 189 185 191 199 200 193 190
317 315 315 314 306 303 301 294 291 293 273 262 255 251 248 246 243 245 244 243 236 237 234 234 230 225 221 218 212 219 217 223 232 228 202 195 194 196 195 203 206 202 198
317 317 315 314 313 307 303 300 290 283 283 273 264 249 247 246 244 242 244 245 239 235 236 236 232 231 226 225 222 224 224 226 236 229 210 199 202 208 213 209 214 213 208
314 316 315 313 312 312 306 300 295 287 278 277 272 264 255 246 243 244 242 244 241 238 236 236 236 233 228 230 232 227 229 234 236 218 220 207 203 208 219 229 225 227 220
325 325 326 324 322 321 316 309 301 293 286 277 272 270 265 257 243 241 242 243 243 239 237 236 237 237 234 231 228 225 227 232 231 227 231 220 215 213 218 227 233 234 230
329 328 331 329 326 319 315 312 308 300 292 283 274 267 264 262 253 245 244 242 242 241 238 236 235 234 234 233 230 226 227 231 234 235 229 220 221 221 220 211 222 226 233
323 331 332 325 320 316 311 308 308 303 295 285 277 270 266 261 258 248 242 246 242 242 240 237 234 234 233 236 235 231 233 235 236 231 225 227 229 228 218 209 214 225 235
322 328 327 325 319 315 312 310 307 302 295 288 278 270 266 262 258 255 242 241 249 241 242 241 237 235 236 236 236 232 234 238 237 231 228 231 234 233 228 220 222 225 235
314 320 322 320 315 312 310 309 306 302 296 289 279 269 264 261 259 255 254 246 244 248 245 242 242 239 237 237 235 233 235 238 239 236 234 233 232 234 233 230 227 229 231
313 317 319 318 314 311 308 305 302 300 295 288 283 273 261 259 256 255 254 250 242 240 246 244 239 243 241 237 237 236 236 237 238 237 239 234 227 232 234 233 232 234 232
315 316 317 314 311 311 308 303 299 297 294 288 283 279 268 258 257 254 252 251 250 248 240 238 247 245 240 238 236 236 236 235 237 237 237 235 230 234 234 233 231 234 238
317 316 314 313 311 307 303 301 298 294 289 287 284 281 276 264 258 256 252 250 250 249 247 245 239 243 227 231 234 237 238 235 234 234 235 235 233 229 230 235 237 238 242
315 315 315 314 311 306 302 301 300 293 289 286 283 280 279 271 259 257 254 251 248 248 250 249 249 240 232 236 238 242 236 237 233 231 234 236 235 234 234 236 238 241 240
320 318 317 313 309 304 302 302 302 302 294 287 284 283 280 275 262 254 253 250 245 245 245 242 239 237 242 225 209 223 223 234 234 228 232 237 238 240 237 239 240 244 244
322 322 322 318 314 308 303 302 299 297 293 292 290 288 288 278 266 254 252 249 244 244 244 236 235 237 235 227 221 217 210 214 230 229 228 238 239 242 242 243 245 248 249
328 326 324 320 316 311 304 300 296 292 291 292 291 293 294 288 271 259 252 249 245 239 241 234 227 230 230 222 220 209 194 207 227 242 240 243 239 241 243 245 247 251 251
333 332 328 323 318 312 306 297 294 287 285 290 294 291 289 287 277 260 251 244 243 234 235 233 228 227 228 219 226 227 224 222 202 220 234 237 235 238 241 247 250 251 251
337 333 329 325 321 313 305 296 296 292 288 290 291 293 289 285 281 263 248 238 239 230 233 234 230 225 227 225 224 218 221 221 219 217 218 225 230 238 246 247 252 253 253
333 331 332 329 325 317 308 299 294 294 290 288 290 290 285 292 281 263 242 237 236 227 231 237 231 231 229 232 227 226 230 214 216 209 213 220 227 235 241 249 241 255 253
Wind_Speed_850mb
15 14 11 12 13 15 16 18 24 30 29 25 25 25 24 24 25 27 28 26 26 27 27 27 26 25 26 22 23 21 19 17 15 13 12 8 2 29 39 42 37 33 29
25 16 14 9 17 21 21 19 23 24 26 27 26 25 25 25 27 30 31 33 32 30 31 31 30 29 26 27 30 27 26 24 18 18 17 14 13 37 36 36 33 28 29
19 13 12 7 13 18 24 23 24 28 28 28 30 28 26 25 25 28 31 34 34 33 33 33 32 32 32 31 29 30 27 23 20 22 22 22 27 40 34 34 30 27 28
16 14 8 14 11 18 21 25 26 27 28 29 31 30 28 26 25 26 30 32 35 34 33 31 30 31 33 33 33 32 27 25 21 19 19 25 38 42 37 30 31 30 29
14 14 12 9 7 17 24 21 28 29 28 28 32 33 31 29 27 27 30 34 34 35 33 30 27 25 24 26 32 35 31 24 22 21 21 31 47 41 37 29 31 31 31
20 21 19 18 18 16 18 30 30 26 31 31 33 35 36 32 31 30 33 36 38 37 34 32 27 22 20 20 23 29 27 26 24 20 26 41 46 39 36 32 32 32 34
24 28 31 32 27 29 29 21 32 32 36 35 37 36 39 39 38 36 38 40 41 41 39 35 29 27 26 23 22 28 25 26 28 21 25 47 45 37 36 29 32 34 33
29 32 33 35 38 34 33 35 32 29 44 41 42 41 42 43 45 44 43 44 44 45 44 40 36 35 34 31 31 30 28 23 24 29 28 50 45 33 35 34 32 36 33
31 36 41 42 42 44 41 38 38 39 35 43 48 49 46 49 48 50 50 49 49 48 50 47 43 41 39 36 37 35 34 28 25 32 35 49 45 39 36 34 34 35 35
37 40 45 50 52 50 50 48 46 44 41 41 42 54 56 56 54 53 55 54 54 53 53 54 48 46 46 40 39 40 40 36 33 33 42 43 51 47 42 40 36 34 37
41 45 49 51 52 52 50 50 48 48 48 48 43 46 56 56 60 58 57 57 58 55 56 57 55 49 49 42 41 40 41 42 40 42 43 47 46 46 47 50 45 40 40
44 46 46 43 43 45 47 50 52 53 52 52 51 49 47 51 61 65 64 61 61 60 57 59 59 53 51 49 46 46 48 44 45 49 54 53 53 50 45 48 52 52 46
41 41 38 44 50 56 61 62 62 62 62 59 54 54 55 51 52 56 68 68 66 64 63 61 62 61 60 59 54 56 54 50 49 52 53 58 57 49 45 43 45 48 48
37 37 48 63 74 77 76 78 80 73 69 67 63 59 58 60 56 53 57 56 73 73 71 68 68 67 67 67 58 60 57 54 51 51 58 60 57 50 43 52 51 53 55
37 48 67 75 81 85 88 87 81 78 73 70 69 66 62 63 65 58 57 56 50 81 78 77 74 73 73 70 64 65 62 58 55 54 57 67 63 57 50 54 61 61 53
42 59 73 83 88 88 89 90 87 79 75 72 70 68 68 66 67 67 65 62 61 48 88 82 81 80 79 76 72 70 70 64 57 57 58 61 73 67 58 54 54 51 55
48 69 80 89 88 90 89 88 84 82 74 71 72 71 70 71 70 71 71 73 65 65 50 83 89 86 85 83 79 76 77 71 64 61 55 62 70 73 65 59 52 54 48
62 79 93 93 93 92 88 86 84 78 77 71 69 73 73 72 71 74 76 74 71 70 61 61 73 92 90 91 87 87 85 80 70 65 58 59 69 77 73 64 56 53 49
76 89 90 87 87 86 85 83 78 75 71 73 65 68 74 75 72 73 78 78 73 70 69 85 39 81 81 102 100 97 92 91 79 70 61 56 61 70 73 66 61 57 54
83 83 84 83 82 82 80 77 74 70 71 70 69 64 67 75 76 72 76 78 73 69 66 61 64 64 88 86 89 93 101 97 87 74 64 57 57 66 72 69 62 60 57
77 79 78 78 70 69 71 71 70 70 67 67 65 66 63 69 76 74 73 75 75 74 72 56 58 64 98 62 65 54 65 92 98 74 67 61 63 62 69 68 66 65 61
75 74 75 74 69 64 66 65 63 63 63 70 65 65 66 63 69 76 71 72 74 72 70 64 54 58 71 83 73 63 41 52 72 75 71 67 68 67 67 67 68 70 70
70 72 76 73 69 63 59 61 62 61 59 60 64 62 65 65 57 65 68 69 69 69 68 67 66 62 72 73 79 64 19 28 64 73 86 85 78 74 74 74 74 75 78
70 74 76 73 69 62 54 56 54 56 62 62 64 66 67 64 62 63 62 62 65 68 69 69 72 68 69 82 80 88 71 46 37 42 87 95 86 79 78 79 81 82 82
74 78 76 72 68 62 54 49 57 57 59 61 64 70 66 70 71 63 63 59 60 65 65 64 74 61 70 70 94 87 87 71 67 46 49 77 88 77 75 83 82 82 83
72 74 73 73 71 64 55 52 48 54 55 59 64 70 64 69 65 55 55 56 55 64 60 59 69 69 66 74 77 83 87 93 88 71 57 63 69 76 81 82 71 71 78
Wind_Direction_850mb
13 353 292 263 241 218 220 242 214 209 211 216 220 216 216 223 229 230 225 218 214 214 211 204 204 202 208 216 224 226 230 239 253 247 245 253 263 148 138 138 136 134 138
5 353 342 271 263 228 216 237 250 231 222 216 222 231 237 235 237 235 226 222 220 215 217 216 219 231 234 223 231 236 240 248 249 241 240 243 187 158 149 147 148 144 146
7 6 341 312 250 259 232 218 241 249 243 236 231 233 240 246 241 232 226 219 217 217 220 220 226 235 241 238 229 237 237 233 243 249 238 219 186 171 161 155 156 157 156
359 3 340 352 265 267 257 235 228 240 253 251 247 242 241 244 245 232 220 215 211 213 220 225 232 241 244 232 221 232 230 231 238 217 228 192 182 177 169 165 164 166 165
332 344 357 310 320 264 274 273 244 238 242 248 254 251 247 243 246 238 221 216 217 215 218 223 232 243 240 222 215 222 227 224 194 209 229 186 175 178 176 171 175 172 173
318 324 333 336 316 313 261 261 264 253 249 243 245 251 250 248 244 240 232 224 222 220 220 220 231 226 220 211 211 212 206 191 204 208 196 179 176 177 187 184 178 174 179
328 329 329 329 323 315 304 300 266 263 255 253 247 243 248 246 244 241 238 232 228 225 224 226 229 223 209 202 190 179 179 195 212 229 200 182 180 176 189 189 186 179 181
326 324 320 313 309 306 305 305 290 275 261 254 254 249 244 241 245 243 242 238 236 232 231 229 227 220 215 206 199 208 213 217 230 232 209 187 189 185 191 199 200 193 190
317 315 315 314 306 303 301 294 291 293 273 262 255 251 248 246 243 245 244 243 236 237 234 234 230 225 221 218 212 219 217 223 232 228 202 195 194 196 195 203 206 202 198
317 317 315 314 313 307 303 300 290 283 283 273 264 249 247 246 244 242 244 245 239 235 236 236 232 231 226 225 222 224 224 226 236 229 210 199 202 208 213 209 214 213 208
314 316 315 313 312 312 306 300 295 287 278 277 272 264 255 246 243 244 242 244 241 238 236 236 236 233 228 230 232 227 229 234 236 218 220 207 203 208 219 229 225 227 220
325 325 326 324 322 321 316 309 301 293 286 277 272 270 265 257 243 241 242 243 243 239 237 236 237 237 234 231 228 225 227 232 231 227 231 220 215 213 218 227 233 234 230
329 328 331 329 326 319 315 312 308 300 292 283 274 267 264 262 253 245 244 242 242 241 238 236 235 234 234 233 230 226 227 231 234 235 229 220 221 221 220 211 222 226 233
323 331 332 325 320 316 311 308 308 303 295 285 277 270 266 261 258 248 242 246 242 242 240 237 234 234 233 236 235 231 233 235 236 231 225 227 229 228 218 209 214 225 235
322 328 327 325 319 315 312 310 307 302 295 288 278 270 266 262 258 255 242 241 249 241 242 241 237 235 236 236 236 232 234 238 237 231 228 231 234 233 228 220 222 225 235
314 320 322 320 315 312 310 309 306 302 296 289 279 269 264 261 259 255 254 246 244 248 245 242 242 239 237 237 235 233 235 238 239 236 234 233 232 234 233 230 227 229 231
313 317 319 318 314 311 308 305 302 300 295 288 283 273 261 259 256 255 254 250 242 240 246 244 239 243 241 237 237 236 236 237 238 237 239 234 227 232 234 233 232 234 232
315 316 317 314 311 311 308 303 299 297 294 288 283 279 268 258 257 254 252 251 250 248 240 238 247 245 240 238 236 236 236 235 237 237 237 235 230 234 234 233 231 234 238
317 316 314 313 311 307 303 301 298 294 289 287 284 281 276 264 258 256 252 250 250 249 247 245 239 243 227 231 234 237 238 235 234 234 235 235 233 229 230 235 237 238 242
315 315 315 314 311 306 302 301 300 293 289 286 283 280 279 271 259 257 254 251 248 248 250 249 249 240 232 236 238 242 236 237 233 231 234 236 235 234 234 236 238 241 240
320 318 317 313 309 304 302 302 302 302 294 287 284 283 280 275 262 254 253 250 245 245 245 242 239 237 242 225 209 223 223 234 234 228 232 237 238 240 237 239 240 244 244
322 322 322 318 314 308 303 302 299 297 293 292 290 288 288 278 266 254 252 249 244 244 244 236 235 237 235 227 221 217 210 214 230 229 228 238 239 242 242 243 245 248 249
328 326 324 320 316 311 304 300 296 292 291 292 291 293 294 288 271 259 252 249 245 239 241 234 227 230 230 222 220 209 194 207 227 242 240 243 239 241 243 245 247 251 251
333 332 328 323 318 312 306 297 294 287 285 290 294 291 289 287 277 260 251 244 243 234 235 233 228 227 228 219 226 227 224 222 202 220 234 237 235 238 241 247 250 251 251
337 333 329 325 321 313 305 296 296 292 288 290 291 293 289 285 281 263 248 238 239 230 233 234 230 225 227 225 224 218 221 221 219 217 218 225 230 238 246 247 252 253 253
333 331 332 329 325 317 308 299 294 294 290 288 290 290 285 292 281 263 242 237 236 227 231 237 231 231 229 232 227 226 230 214 216 209 213 220 227 235 241 249 241 255 253